This demonstration page uses our WeatherBlox Daily Observations layout. Learn more.

Hourly Observations for May 10, 2018

Temp ( °F °C ) Dew Point ( °F °C ) Humidity (%) Winds ( mph kmh ) Pressure ( in mb ) Visibility ( mi km ) Precip ( " mm )
1:54 am 01:54 Partly Cloudy 57 13.9 48 8.9 72 72 N 5 7 29.87 1012 10 16.0934 0 0
2:54 am 02:54 Mostly Cloudy 55 12.8 48 8.9 77 77 N 7 11 29.88 1012 10 16.0934 0 0
3:54 am 03:54 Mostly Cloudy 56 13.3 49 9.4 77 77 N 8 13 29.9 1013 10 16.0934 0 0
4:54 am 04:54 Mostly Cloudy 57 13.9 50 10 78 78 N 5 7 29.91 1013 10 16.0934 0 0
5:54 am 05:54 Mostly Clear 57 13.9 49 9.4 74 74 NNW 5 7 29.93 1013 10 16.0934 0 0
6:54 am 06:54 Sunny 56 13.3 49 9.4 77 77 N 7 11 29.92 1013 10 16.0934 0 0
7:54 am 07:54 Mostly Sunny 63 17.2 51 10.6 65 65 NNE 3 6 29.94 1014 10 16.0934 0 0
8:54 am 08:54 Mostly Sunny 68 20 53 11.7 59 59 NE 15 24 29.94 1014 10 16.0934 0 0
9:54 am 09:54 Sunny 71 21.7 54 12.2 55 55 NE 8 13 29.96 1015 10 16.0934 0 0
10:54 am 10:54 Sunny 75 23.9 54 12.2 48 48 E 10 17 29.95 1014 10 16.0934 0 0
11:54 am 11:54 Sunny 78 25.6 53 11.7 42 42 ENE 10 17 29.92 1013 10 16.0934 0 0
12:54 pm 12:54 Sunny 79 26.1 52 11.1 39 39 ENE 8 13 29.92 1013 10 16.0934 0 0
1:54 pm 13:54 Sunny 83 28.3 53 11.7 36 36 E 6 9 29.89 1012 10 16.0934 0 0
2:54 pm 14:54 Sunny 83 28.3 52 11.1 34 34 E 10 17 29.86 1011 10 16.0934 0 0
3:54 pm 15:54 Sunny 84 28.9 52 11.1 33 33 E 12 19 29.83 1010 10 16.0934 0 0
4:54 pm 16:54 Sunny 86 30 53 11.7 32 32 ESE 13 20 29.81 1010 10 16.0934 0 0
5:54 pm 17:54 Mostly Sunny 85 29.4 52 11.1 32 32 ESE 9 15 29.79 1009 10 16.0934 0 0
6:54 pm 18:54 Sunny 80 26.7 54 12.2 41 41 NE 21 33 29.78 1008 10 16.0934 0 0
7:54 pm 19:54 Sunny 77 25 53 11.7 43 43 E 22 35 29.76 1008 10 16.0934 0 0
8:54 pm 20:54 Mostly Cloudy 75 23.9 53 11.7 46 46 ENE 23 37 29.77 1008 10 16.0934 0 0
9:54 pm 21:54 Mostly Cloudy 72 22.2 53 11.7 52 52 E 26 43 29.78 1009 10 16.0934 0 0
10:54 pm 22:54 Mostly Clear 68 20 46 7.8 45 45 E 21 33 29.79 1009 10 16.0934 0 0
11:54 pm 23:54 Partly Cloudy 66 18.9 43 6.1 43 43 ENE 21 33 29.78 1008 10 16.0934 0 0

Powered by AerisWeather